Private Wetterstation Wechselburg
Wetterdaten: Samstag, 22.06.2019
Datum Zeit Temp. +2m Bodentemp. Temp.+5cm Temp. Wind Windchill X Diff Temp. Feuchte +2m Feuchte +5cm Luftdruck Regen Wind Richtung Richtung Sonnenschein Taupunkt Windchill Windben
22.06.2019 00:00 16,5 C 20,0 C 16,1 C 15,8 C 14,5 C 0,0 C 79 % 83 % 1020,9 hPa 0,0 l/m 0,0 km/h (0 Bft) NW 315 0 min 12,8 C 14,5 C 0,0 km/h (0 Bft)
22.06.2019 00:05 16,5 C 20,1 C 15,9 C 15,8 C 14,5 C 0,0 C 79 % 83 % 1021,0 hPa 0,0 l/m 0,0 km/h (0 Bft) NW 315 0 min 12,8 C 14,5 C 0,0 km/h (0 Bft)
22.06.2019 00:11 16,3 C 20,0 C 15,9 C 15,7 C 14,5 C 0,0 C 80 % 83 % 1021,0 hPa 0,0 l/m 0,0 km/h (0 Bft) N 0 0 min 12,8 C 14,5 C 0,0 km/h (0 Bft)
22.06.2019 00:26 16,0 C 20,0 C 15,7 C 15,5 C 14,5 C 0,0 C 81 % 84 % 1020,8 hPa 0,0 l/m 0,0 km/h (0 Bft) NO 45 0 min 12,7 C 14,5 C 0,0 km/h (0 Bft)
22.06.2019 00:27 16,0 C 20,0 C 15,7 C 15,5 C 14,5 C 0,0 C 81 % 84 % 1020,8 hPa 0,0 l/m 0,0 km/h (0 Bft) NO 45 0 min 12,7 C 14,5 C 0,0 km/h (0 Bft)
22.06.2019 00:40 15,7 C 20,0 C 15,3 C 15,1 C 14,0 C 0,0 C 81 % 84 % 1020,8 hPa 0,0 l/m 0,0 km/h (0 Bft) NO 45 0 min 12,4 C 14,0 C 0,0 km/h (0 Bft)
22.06.2019 00:45 15,6 C 20,0 C 15,2 C 15,0 C 13,8 C 0,0 C 82 % 85 % 1020,7 hPa 0,0 l/m 0,0 km/h (0 Bft) N-NW 337 0 min 12,5 C 13,8 C 0,0 km/h (0 Bft)
22.06.2019 00:50 15,5 C 20,0 C 15,2 C 14,9 C 13,7 C 0,0 C 82 % 85 % 1020,7 hPa 0,0 l/m 0,0 km/h (0 Bft) NW 315 0 min 12,4 C 13,7 C 0,0 km/h (0 Bft)
22.06.2019 00:55 15,4 C 20,0 C 15,1 C 14,8 C 13,5 C 0,0 C 82 % 85 % 1020,7 hPa 0,0 l/m 0,0 km/h (0 Bft) NW 315 0 min 12,3 C 13,5 C 0,0 km/h (0 Bft)
22.06.2019 01:00 15,3 C 20,0 C 14,9 C 14,7 C 13,4 C 0,0 C 82 % 85 % 1020,7 hPa 0,0 l/m 0,0 km/h (0 Bft) NW 315 0 min 12,2 C 13,4 C 0,0 km/h (0 Bft)
22.06.2019 01:05 15,1 C 20,0 C 14,9 C 14,5 C 13,3 C 0,0 C 82 % 85 % 1021,0 hPa 0,0 l/m 0,0 km/h (0 Bft) SO 135 0 min 12,0 C 13,3 C 0,0 km/h (0 Bft)
22.06.2019 01:10 15,0 C 19,9 C 14,7 C 14,4 C 13,3 C 0,0 C 82 % 85 % 1021,0 hPa 0,0 l/m 0,0 km/h (0 Bft) NO 45 0 min 12,0 C 13,3 C 0,0 km/h (0 Bft)
22.06.2019 01:15 14,9 C 19,9 C 14,7 C 14,4 C 13,3 C 0,0 C 83 % 86 % 1021,0 hPa 0,0 l/m 0,0 km/h (0 Bft) W-NW 292 0 min 12,0 C 13,3 C 0,0 km/h (0 Bft)
22.06.2019 01:20 14,9 C 19,9 C 14,7 C 14,3 C 13,2 C 0,0 C 83 % 86 % 1021,0 hPa 0,0 l/m 0,0 km/h (0 Bft) SW 225 0 min 12,0 C 13,2 C 0,0 km/h (0 Bft)
22.06.2019 01:25 14,8 C 19,9 C 14,7 C 14,2 C 13,1 C 0,0 C 83 % 86 % 1021,2 hPa 0,0 l/m 0,0 km/h (0 Bft) SW 225 0 min 11,9 C 13,1 C 0,0 km/h (0 Bft)
22.06.2019 01:30 14,7 C 19,9 C 14,5 C 14,2 C 13,1 C 0,0 C 83 % 86 % 1021,2 hPa 0,0 l/m 0,0 km/h (0 Bft) O-NO 67 0 min 11,8 C 13,1 C 0,0 km/h (0 Bft)
22.06.2019 01:35 14,7 C 19,9 C 14,5 C 14,2 C 13,2 C 0,0 C 83 % 86 % 1021,2 hPa 0,0 l/m 0,0 km/h (0 Bft) N 360 0 min 11,8 C 13,2 C 0,0 km/h (0 Bft)
22.06.2019 01:40 14,7 C 19,9 C 14,5 C 14,2 C 13,2 C 0,0 C 83 % 87 % 1021,2 hPa 0,0 l/m 0,0 km/h (0 Bft) NW 315 0 min 11,8 C 13,2 C 0,0 km/h (0 Bft)
22.06.2019 01:45 14,6 C 19,8 C 14,5 C 14,1 C 13,2 C 0,0 C 84 % 87 % 1020,9 hPa 0,0 l/m 0,0 km/h (0 Bft) SW 225 0 min 11,9 C 13,2 C 0,0 km/h (0 Bft)
22.06.2019 01:50 14,5 C 19,9 C 14,5 C 14,1 C 13,2 C 0,0 C 84 % 87 % 1020,9 hPa 0,0 l/m 0,0 km/h (0 Bft) O-NO 67 0 min 11,8 C 13,2 C 0,0 km/h (0 Bft)
22.06.2019 01:55 14,5 C 19,8 C 14,4 C 14,1 C 13,2 C 0,0 C 84 % 86 % 1020,9 hPa 0,0 l/m 0,0 km/h (0 Bft) W-SW 247 0 min 11,8 C 13,2 C 0,0 km/h (0 Bft)
22.06.2019 02:00 14,4 C 19,8 C 14,4 C 14,0 C 13,1 C 0,0 C 84 % 86 % 1020,9 hPa 0,0 l/m 0,0 km/h (0 Bft) W-SW 247 0 min 11,7 C 13,1 C 0,0 km/h (0 Bft)
22.06.2019 02:05 14,4 C 19,8 C 14,3 C 13,9 C 12,8 C 0,0 C 84 % 86 % 1021,2 hPa 0,0 l/m 0,0 km/h (0 Bft) W-SW 247 0 min 11,7 C 12,8 C 0,0 km/h (0 Bft)
22.06.2019 02:11 14,3 C 19,8 C 14,2 C 13,8 C 12,7 C 0,0 C 84 % 86 % 1021,2 hPa 0,0 l/m 0,0 km/h (0 Bft) N 0 0 min 11,6 C 12,7 C 0,0 km/h (0 Bft)
22.06.2019 02:26 14,0 C 19,8 C 14,0 C 13,5 C 12,6 C 0,0 C 84 % 86 % 1021,5 hPa 0,0 l/m 0,0 km/h (0 Bft) O-NO 67 0 min 11,3 C 12,6 C 0,0 km/h (0 Bft)
22.06.2019 02:35 14,0 C 19,8 C 14,0 C 13,6 C 12,7 C 0,0 C 85 % 87 % 1021,5 hPa 0,0 l/m 0,0 km/h (0 Bft) W-SW 247 0 min 11,5 C 12,7 C 0,0 km/h (0 Bft)
22.06.2019 02:40 14,0 C 19,7 C 14,0 C 13,5 C 12,5 C 0,0 C 85 % 87 % 1021,5 hPa 0,0 l/m 0,0 km/h (0 Bft) W-SW 247 0 min 11,5 C 12,5 C 0,0 km/h (0 Bft)
22.06.2019 02:45 13,9 C 19,7 C 13,9 C 13,4 C 12,4 C 0,0 C 85 % 87 % 1021,5 hPa 0,0 l/m 0,0 km/h (0 Bft) O-NO 67 0 min 11,4 C 12,4 C 0,0 km/h (0 Bft)
22.06.2019 02:50 13,9 C 19,7 C 13,8 C 13,4 C 12,4 C 0,0 C 85 % 87 % 1021,5 hPa 0,0 l/m 0,0 km/h (0 Bft) NO 45 0 min 11,4 C 12,4 C 0,0 km/h (0 Bft)
22.06.2019 02:55 13,7 C 19,8 C 13,7 C 13,3 C 12,4 C 0,0 C 85 % 87 % 1021,5 hPa 0,0 l/m 0,0 km/h (0 Bft) NO 45 0 min 11,2 C 12,4 C 0,0 km/h (0 Bft)
22.06.2019 03:00 13,7 C 19,7 C 13,7 C 13,3 C 12,4 C 0,0 C 85 % 87 % 1021,5 hPa 0,0 l/m 0,0 km/h (0 Bft) W-NW 292 0 min 11,2 C 12,4 C 0,0 km/h (0 Bft)
22.06.2019 03:05 13,6 C 19,7 C 13,6 C 13,2 C 12,3 C 0,0 C 85 % 88 % 1021,5 hPa 0,0 l/m 0,0 km/h (0 Bft) NW 315 0 min 11,1 C 12,3 C 0,0 km/h (0 Bft)
22.06.2019 03:10 13,7 C 19,8 C 13,6 C 13,2 C 12,3 C 0,0 C 86 % 88 % 1021,5 hPa 0,0 l/m 0,0 km/h (0 Bft) S 180 0 min 11,4 C 12,3 C 0,0 km/h (0 Bft)
22.06.2019 03:15 13,6 C 19,8 C 13,5 C 13,1 C 12,2 C 0,0 C 86 % 88 % 1021,5 hPa 0,0 l/m 0,0 km/h (0 Bft) S 180 0 min 11,3 C 12,2 C 0,0 km/h (0 Bft)
22.06.2019 03:20 13,5 C 19,8 C 13,5 C 13,1 C 12,2 C 0,0 C 86 % 88 % 1021,5 hPa 0,0 l/m 0,0 km/h (0 Bft) N-NO 22 0 min 11,2 C 12,2 C 0,0 km/h (0 Bft)
22.06.2019 03:25 13,5 C 19,7 C 13,5 C 13,0 C 12,1 C 0,0 C 86 % 88 % 1022,2 hPa 0,0 l/m 0,0 km/h (0 Bft) NO 45 0 min 11,2 C 12,1 C 0,0 km/h (0 Bft)
22.06.2019 03:30 13,5 C 19,7 C 13,4 C 13,0 C 12,1 C 0,0 C 86 % 88 % 1022,2 hPa 0,0 l/m 0,0 km/h (0 Bft) N-NW 337 0 min 11,2 C 12,1 C 0,0 km/h (0 Bft)
22.06.2019 03:35 13,3 C 19,6 C 13,4 C 12,9 C 12,1 C 0,0 C 86 % 88 % 1022,2 hPa 0,0 l/m 0,0 km/h (0 Bft) W-SW 247 0 min 11,0 C 12,1 C 0,0 km/h (0 Bft)
22.06.2019 03:40 13,3 C 19,6 C 13,3 C 12,8 C 11,9 C 0,0 C 86 % 88 % 1022,2 hPa 0,0 l/m 0,0 km/h (0 Bft) W-SW 247 0 min 11,0 C 11,9 C 0,0 km/h (0 Bft)
22.06.2019 03:45 13,3 C 19,6 C 13,2 C 12,8 C 11,8 C 0,0 C 86 % 88 % 1022,0 hPa 0,0 l/m 0,0 km/h (0 Bft) N-NW 337 0 min 11,0 C 11,8 C 0,0 km/h (0 Bft)
22.06.2019 03:50 13,2 C 19,6 C 13,1 C 12,7 C 11,8 C 0,0 C 86 % 88 % 1022,0 hPa 0,0 l/m 0,0 km/h (0 Bft) N-NW 337 0 min 10,9 C 11,8 C 0,0 km/h (0 Bft)
22.06.2019 03:55 13,1 C 19,6 C 13,1 C 12,6 C 11,7 C 0,0 C 86 % 88 % 1022,0 hPa 0,0 l/m 0,0 km/h (0 Bft) N-NW 337 0 min 10,8 C 11,7 C 0,0 km/h (0 Bft)
22.06.2019 04:00 13,1 C 19,6 C 13,1 C 12,6 C 11,6 C 0,0 C 86 % 88 % 1022,0 hPa 0,0 l/m 0,0 km/h (0 Bft) N-NO 22 0 min 10,8 C 11,6 C 0,0 km/h (0 Bft)
22.06.2019 04:05 12,9 C 19,7 C 13,0 C 12,5 C 11,7 C 0,0 C 86 % 88 % 1021,8 hPa 0,0 l/m 0,0 km/h (0 Bft) SO 135 0 min 10,6 C 11,7 C 0,0 km/h (0 Bft)
22.06.2019 04:11 12,9 C 19,6 C 12,9 C 12,5 C 11,7 C 0,0 C 86 % 88 % 1021,8 hPa 0,0 l/m 0,0 km/h (0 Bft) N 0 0 min 10,6 C 11,7 C 0,0 km/h (0 Bft)
22.06.2019 04:26 12,8 C 19,6 C 12,9 C 12,4 C 11,5 C 0,0 C 86 % 89 % 1021,6 hPa 0,0 l/m 0,0 km/h (0 Bft) SW 225 0 min 10,5 C 11,5 C 0,0 km/h (0 Bft)
22.06.2019 04:35 12,6 C 19,6 C 12,8 C 12,2 C 11,5 C 0,0 C 86 % 89 % 1021,6 hPa 0,0 l/m 0,0 km/h (0 Bft) O-NO 67 0 min 10,3 C 11,5 C 0,0 km/h (0 Bft)
22.06.2019 04:40 12,6 C 19,5 C 12,7 C 12,2 C 11,5 C 0,0 C 86 % 89 % 1021,6 hPa 0,0 l/m 0,0 km/h (0 Bft) O-NO 67 0 min 10,3 C 11,5 C 0,0 km/h (0 Bft)
22.06.2019 04:45 12,6 C 19,5 C 12,7 C 12,2 C 11,5 C 0,0 C 87 % 89 % 1021,8 hPa 0,0 l/m 0,0 km/h (0 Bft) SW 225 0 min 10,5 C 11,5 C 0,0 km/h (0 Bft)
22.06.2019 04:50 12,5 C 19,5 C 12,8 C 12,2 C 11,5 C 0,0 C 87 % 89 % 1021,8 hPa 0,0 l/m 0,0 km/h (0 Bft) S-SW 202 0 min 10,4 C 11,5 C 0,0 km/h (0 Bft)
22.06.2019 04:55 12,5 C 19,5 C 12,7 C 12,2 C 11,5 C 0,0 C 87 % 89 % 1021,8 hPa 0,0 l/m 0,0 km/h (0 Bft) O-NO 67 0 min 10,4 C 11,5 C 0,0 km/h (0 Bft)
22.06.2019 05:00 12,4 C 19,5 C 12,7 C 12,1 C 11,5 C 0,0 C 87 % 89 % 1021,8 hPa 0,0 l/m 0,0 km/h (0 Bft) O-NO 67 0 min 10,3 C 11,5 C 0,0 km/h (0 Bft)
22.06.2019 05:05 12,4 C 19,4 C 12,6 C 12,1 C 11,5 C 0,0 C 87 % 89 % 1022,1 hPa 0,0 l/m 0,0 km/h (0 Bft) O-NO 67 0 min 10,3 C 11,5 C 0,0 km/h (0 Bft)
22.06.2019 05:10 12,4 C 19,4 C 12,6 C 12,1 C 11,5 C 0,0 C 87 % 89 % 1022,1 hPa 0,0 l/m 0,0 km/h (0 Bft) W-NW 292 0 min 10,3 C 11,5 C 0,0 km/h (0 Bft)
22.06.2019 05:15 12,3 C 19,4 C 12,5 C 12,0 C 11,4 C 0,0 C 87 % 89 % 1022,1 hPa 0,0 l/m 0,2 km/h (0 Bft) N-NO 22 0 min 10,2 C 11,4 C 1,9 km/h (1 Bft)
22.06.2019 05:20 12,2 C 19,4 C 12,5 C 11,9 C 11,4 C 0,0 C 87 % 89 % 1022,1 hPa 0,0 l/m 0,2 km/h (0 Bft) W-NW 292 0 min 10,1 C 11,4 C 0,0 km/h (0 Bft)
22.06.2019 05:25 12,3 C 19,4 C 12,5 C 12,0 C 11,3 C 0,0 C 87 % 89 % 1022,1 hPa 0,0 l/m 0,0 km/h (0 Bft) NW 315 0 min 10,2 C 11,3 C 0,0 km/h (0 Bft)
22.06.2019 05:30 12,2 C 19,3 C 12,5 C 11,9 C 11,3 C 0,0 C 87 % 89 % 1022,1 hPa 0,0 l/m 0,0 km/h (0 Bft) W-NW 292 0 min 10,1 C 11,3 C 0,0 km/h (0 Bft)
22.06.2019 05:35 12,1 C 19,3 C 12,5 C 11,9 C 11,4 C 0,0 C 87 % 89 % 1022,1 hPa 0,0 l/m 0,0 km/h (0 Bft) W 270 0 min 10,0 C 11,4 C 0,0 km/h (0 Bft)
22.06.2019 05:40 12,1 C 19,3 C 12,6 C 11,9 C 11,4 C 0,0 C 87 % 89 % 1022,1 hPa 0,0 l/m 0,0 km/h (0 Bft) SW 225 0 min 10,0 C 11,4 C 0,0 km/h (0 Bft)
22.06.2019 05:45 12,1 C 19,3 C 12,6 C 11,9 C 11,4 C 0,0 C 87 % 89 % 1021,9 hPa 0,0 l/m 0,0 km/h (0 Bft) SW 225 0 min 10,0 C 11,4 C 0,0 km/h (0 Bft)
22.06.2019 05:50 12,1 C 19,3 C 12,7 C 11,9 C 11,4 C 0,0 C 87 % 89 % 1021,9 hPa 0,0 l/m 0,0 km/h (0 Bft) SW 225 0 min 10,0 C 11,4 C 0,0 km/h (0 Bft)
22.06.2019 05:55 12,1 C 19,3 C 12,6 C 11,9 C 11,5 C 0,0 C 87 % 89 % 1021,9 hPa 0,0 l/m 0,0 km/h (0 Bft) SW 225 0 min 10,0 C 11,5 C 0,0 km/h (0 Bft)
22.06.2019 06:00 12,1 C 19,3 C 12,7 C 11,9 C 11,5 C 0,0 C 87 % 89 % 1021,9 hPa 0,0 l/m 0,0 km/h (0 Bft) SW 225 0 min 10,0 C 11,5 C 0,0 km/h (0 Bft)
22.06.2019 06:05 12,1 C 19,3 C 12,7 C 11,9 C 11,6 C 0,0 C 87 % 89 % 1022,2 hPa 0,0 l/m 0,0 km/h (0 Bft) S 180 0 min 10,0 C 11,6 C 0,0 km/h (0 Bft)
22.06.2019 06:11 12,1 C 19,2 C 12,7 C 12,0 C 11,7 C 0,0 C 87 % 89 % 1022,2 hPa 0,0 l/m 0,0 km/h (0 Bft) N 0 0 min 10,0 C 11,7 C 0,0 km/h (0 Bft)
22.06.2019 06:27 12,1 C 19,2 C 13,0 C 12,1 C 12,1 C 0,0 C 87 % 89 % 1022,2 hPa 0,0 l/m 0,0 km/h (0 Bft) N 360 0 min 10,0 C 12,1 C 0,0 km/h (0 Bft)
22.06.2019 06:35 12,2 C 19,1 C 13,2 C 12,6 C 12,6 C 0,4 C 87 % 89 % 1022,2 hPa 0,0 l/m 0,0 km/h (0 Bft) W-SW 247 0 min 10,1 C 12,6 C 0,0 km/h (0 Bft)
22.06.2019 06:40 12,3 C 19,1 C 13,3 C 12,8 C 12,8 C 0,5 C 87 % 89 % 1022,2 hPa 0,0 l/m 0,0 km/h (0 Bft) W 270 0 min 10,2 C 12,8 C 0,0 km/h (0 Bft)
22.06.2019 06:45 12,4 C 19,1 C 13,5 C 13,1 C 13,1 C 0,7 C 88 % 89 % 1022,5 hPa 0,0 l/m 0,0 km/h (0 Bft) W 270 0 min 10,5 C 13,1 C 0,0 km/h (0 Bft)
22.06.2019 06:50 12,4 C 19,1 C 13,7 C 13,3 C 13,3 C 0,9 C 88 % 89 % 1022,5 hPa 0,0 l/m 0,0 km/h (0 Bft) W-SW 247 0 min 10,5 C 13,3 C 0,0 km/h (0 Bft)
22.06.2019 06:55 12,4 C 18,9 C 14,2 C 13,5 C 13,5 C 1,1 C 88 % 89 % 1022,5 hPa 0,0 l/m 0,0 km/h (0 Bft) W-SW 247 0 min 10,5 C 13,5 C 0,0 km/h (0 Bft)
22.06.2019 07:00 12,5 C 18,9 C 14,3 C 13,9 C 13,9 C 1,4 C 88 % 88 % 1022,5 hPa 0,0 l/m 0,0 km/h (0 Bft) W-SW 247 0 min 10,6 C 13,9 C 0,0 km/h (0 Bft)
22.06.2019 07:05 12,7 C 18,9 C 14,6 C 17,3 C 17,3 C 4,6 C 88 % 87 % 1022,5 hPa 0,0 l/m 0,0 km/h (0 Bft) S 180 5 min 10,8 C 17,3 C 0,0 km/h (0 Bft)
22.06.2019 07:10 12,7 C 18,9 C 14,9 C 19,6 C 19,6 C 6,9 C 88 % 87 % 1022,5 hPa 0,0 l/m 0,0 km/h (0 Bft) SW 225 5 min 10,8 C 19,6 C 0,0 km/h (0 Bft)
22.06.2019 07:15 12,9 C 18,9 C 15,2 C 21,7 C 21,7 C 8,8 C 88 % 87 % 1022,5 hPa 0,0 l/m 0,2 km/h (0 Bft) W-SW 247 5 min 11,0 C 21,7 C 1,9 km/h (1 Bft)
22.06.2019 07:20 13,1 C 18,8 C 15,3 C 22,5 C 22,5 C 9,4 C 88 % 86 % 1022,5 hPa 0,0 l/m 0,2 km/h (0 Bft) W-SW 247 5 min 11,2 C 22,5 C 0,0 km/h (0 Bft)
22.06.2019 07:25 13,6 C 18,8 C 15,6 C 23,5 C 23,5 C 9,9 C 88 % 86 % 1022,2 hPa 0,0 l/m 0,3 km/h (0 Bft) N 360 5 min 11,6 C 23,5 C 2,1 km/h (1 Bft)
22.06.2019 07:30 13,9 C 18,8 C 15,8 C 23,9 C 23,9 C 10,0 C 88 % 85 % 1022,2 hPa 0,0 l/m 0,2 km/h (0 Bft) W-NW 292 5 min 11,9 C 23,9 C 0,0 km/h (0 Bft)
22.06.2019 07:35 14,4 C 18,8 C 16,1 C 24,6 C 24,6 C 10,2 C 88 % 84 % 1022,2 hPa 0,0 l/m 0,3 km/h (0 Bft) N-NW 337 5 min 12,4 C 24,6 C 2,7 km/h (1 Bft)
22.06.2019 07:40 14,8 C 18,8 C 16,3 C 24,9 C 24,9 C 10,1 C 87 % 83 % 1022,2 hPa 0,0 l/m 0,2 km/h (0 Bft) S-SW 202 5 min 12,7 C 24,9 C 0,0 km/h (0 Bft)
22.06.2019 07:45 15,7 C 18,8 C 16,5 C 25,7 C 25,7 C 10,0 C 88 % 82 % 1022,4 hPa 0,0 l/m 0,2 km/h (0 Bft) NO 45 5 min 13,7 C 25,7 C 1,6 km/h (1 Bft)
22.06.2019 07:50 16,3 C 18,8 C 16,7 C 25,8 C 25,8 C 9,5 C 87 % 82 % 1022,4 hPa 0,0 l/m 0,2 km/h (0 Bft) NO 45 5 min 14,1 C 25,8 C 0,0 km/h (0 Bft)
22.06.2019 07:55 16,9 C 18,7 C 16,7 C 24,1 C 24,1 C 7,2 C 86 % 80 % 1022,4 hPa 0,0 l/m 0,2 km/h (0 Bft) O-SO 112 5 min 14,5 C 24,1 C 0,0 km/h (0 Bft)
22.06.2019 08:00 17,1 C 18,7 C 16,7 C 22,6 C 22,6 C 5,5 C 85 % 80 % 1022,4 hPa 0,0 l/m 0,0 km/h (0 Bft) NO 45 5 min 14,6 C 22,6 C 0,0 km/h (0 Bft)
22.06.2019 08:05 17,3 C 18,8 C 16,9 C 21,2 C 21,2 C 3,9 C 83 % 79 % 1022,2 hPa 0,0 l/m 0,0 km/h (0 Bft) NO 45 5 min 14,4 C 21,2 C 0,0 km/h (0 Bft)
22.06.2019 08:11 17,2 C 18,7 C 17,0 C 20,7 C 20,7 C 3,5 C 82 % 80 % 1022,2 hPa 0,0 l/m 0,0 km/h (0 Bft) N 0 6 min 14,1 C 20,7 C 0,0 km/h (0 Bft)
22.06.2019 08:26 18,1 C 18,7 C 17,7 C 24,7 C 24,7 C 6,6 C 80 % 79 % 1022,4 hPa 0,0 l/m 1,0 km/h (0 Bft) NW 315 15 min 14,6 C 24,7 C 3,5 km/h (1 Bft)
22.06.2019 08:35 18,3 C 18,7 C 17,7 C 22,5 C 22,5 C 4,2 C 79 % 78 % 1022,4 hPa 0,0 l/m 0,3 km/h (0 Bft) O-NO 67 9 min 14,6 C 22,5 C 0,0 km/h (0 Bft)
22.06.2019 08:40 18,5 C 18,7 C 17,9 C 22,4 C 22,4 C 3,9 C 79 % 79 % 1022,4 hPa 0,0 l/m 0,0 km/h (0 Bft) O-NO 67 5 min 14,8 C 22,4 C 0,0 km/h (0 Bft)
22.06.2019 08:45 18,6 C 18,7 C 18,1 C 22,2 C 22,2 C 3,6 C 78 % 78 % 1022,3 hPa 0,0 l/m 0,0 km/h (0 Bft) NW 315 5 min 14,7 C 22,2 C 0,0 km/h (0 Bft)
22.06.2019 08:50 18,8 C 18,7 C 18,2 C 22,2 C 22,2 C 3,4 C 78 % 77 % 1022,3 hPa 0,0 l/m 0,0 km/h (0 Bft) S 180 5 min 14,9 C 22,2 C 0,0 km/h (0 Bft)
22.06.2019 08:55 19,0 C 18,7 C 18,5 C 22,4 C 22,4 C 3,4 C 77 % 77 % 1022,3 hPa 0,0 l/m 0,0 km/h (0 Bft) NW 315 5 min 14,9 C 22,4 C 0,0 km/h (0 Bft)
22.06.2019 09:00 19,1 C 18,7 C 18,7 C 22,5 C 22,5 C 3,4 C 77 % 77 % 1022,3 hPa 0,0 l/m 0,2 km/h (0 Bft) N-NO 22 5 min 15,0 C 22,5 C 0,0 km/h (0 Bft)
22.06.2019 09:05 19,5 C 18,7 C 19,0 C 23,6 C 23,6 C 4,1 C 77 % 75 % 1022,1 hPa 0,0 l/m 0,3 km/h (0 Bft) O 90 5 min 15,4 C 23,6 C 0,0 km/h (0 Bft)
22.06.2019 09:10 20,1 C 18,7 C 19,1 C 26,0 C 26,0 C 5,9 C 77 % 74 % 1022,1 hPa 0,0 l/m 0,8 km/h (0 Bft) O-NO 67 5 min 15,9 C 26,0 C 2,9 km/h (1 Bft)
22.06.2019 09:15 20,9 C 18,7 C 19,3 C 27,6 C 27,6 C 6,7 C 75 % 74 % 1022,1 hPa 0,0 l/m 1,9 km/h (1 Bft) N-NO 22 5 min 16,3 C 27,6 C 5,1 km/h (1 Bft)
22.06.2019 09:20 21,0 C 18,7 C 19,4 C 27,5 C 27,5 C 6,5 C 73 % 74 % 1022,1 hPa 0,0 l/m 2,4 km/h (1 Bft) NO 45 5 min 16,0 C 27,5 C 0,0 km/h (0 Bft)
22.06.2019 09:25 21,2 C 18,7 C 19,6 C 28,7 C 28,7 C 7,5 C 71 % 73 % 1022,1 hPa 0,0 l/m 1,8 km/h (1 Bft) O-NO 67 5 min 15,7 C 28,7 C 3,5 km/h (1 Bft)
22.06.2019 09:30 21,2 C 18,7 C 19,7 C 29,2 C 29,2 C 8,0 C 71 % 73 % 1022,1 hPa 0,0 l/m 1,4 km/h (1 Bft) W-NW 292 5 min 15,7 C 29,2 C 4,0 km/h (1 Bft)
22.06.2019 09:35 21,3 C 18,7 C 19,7 C 29,0 C 29,0 C 7,7 C 71 % 72 % 1022,1 hPa 0,0 l/m 2,1 km/h (1 Bft) SO 135 5 min 15,8 C 29,0 C 1,8 km/h (1 Bft)
22.06.2019 09:40 21,3 C 18,7 C 19,8 C 29,4 C 29,4 C 8,1 C 70 % 73 % 1022,1 hPa 0,0 l/m 1,9 km/h (1 Bft) N-NW 337 5 min 15,6 C 29,4 C 3,7 km/h (1 Bft)
22.06.2019 09:45 21,5 C 18,7 C 19,9 C 27,7 C 27,7 C 6,2 C 70 % 72 % 1021,9 hPa 0,0 l/m 1,8 km/h (1 Bft) NO 45 5 min 15,8 C 27,7 C 3,5 km/h (1 Bft)
22.06.2019 09:50 21,7 C 18,7 C 20,1 C 26,2 C 26,2 C 4,5 C 70 % 72 % 1021,9 hPa 0,0 l/m 2,1 km/h (1 Bft) O 90 5 min 16,0 C 26,2 C 4,8 km/h (1 Bft)
22.06.2019 09:55 21,6 C 18,7 C 20,3 C 27,5 C 27,5 C 5,9 C 70 % 73 % 1021,9 hPa 0,0 l/m 1,8 km/h (1 Bft) W 270 5 min 15,9 C 27,5 C 5,6 km/h (1 Bft)
22.06.2019 10:00 21,7 C 18,7 C 20,4 C 28,7 C 28,7 C 7,0 C 70 % 73 % 1021,9 hPa 0,0 l/m 1,6 km/h (1 Bft) NO 45 5 min 16,0 C 28,7 C 2,6 km/h (1 Bft)
22.06.2019 10:05 21,8 C 18,7 C 20,6 C 28,8 C 28,8 C 7,0 C 70 % 72 % 1021,9 hPa 0,0 l/m 2,6 km/h (1 Bft) O 90 5 min 16,1 C 28,8 C 8,5 km/h (2 Bft)
22.06.2019 10:11 21,9 C 18,7 C 20,8 C 28,8 C 28,8 C 6,9 C 69 % 71 % 1021,9 hPa 0,0 l/m 3,4 km/h (1 Bft) N 0 6 min 15,9 C 28,8 C 2,7 km/h (1 Bft)
22.06.2019 10:26 22,3 C 18,8 C 21,1 C 26,0 C 26,0 C 3,7 C 69 % 71 % 1021,9 hPa 0,0 l/m 3,5 km/h (1 Bft) O-NO 67 15 min 16,3 C 26,0 C 12,1 km/h (2 Bft)
22.06.2019 10:35 22,5 C 18,7 C 21,8 C 27,4 C 27,4 C 4,9 C 69 % 68 % 1021,9 hPa 0,0 l/m 4,5 km/h (1 Bft) O-NO 67 9 min 16,5 C 27,4 C 3,9 km/h (1 Bft)
22.06.2019 10:40 22,9 C 18,7 C 22,0 C 28,1 C 28,1 C 5,2 C 68 % 67 % 1021,9 hPa 0,0 l/m 5,0 km/h (1 Bft) O-NO 67 5 min 16,7 C 28,1 C 7,2 km/h (2 Bft)
22.06.2019 10:45 23,1 C 18,7 C 22,3 C 27,0 C 27,0 C 3,9 C 66 % 67 % 1021,7 hPa 0,0 l/m 5,5 km/h (1 Bft) O-NO 67 5 min 16,4 C 27,0 C 12,7 km/h (3 Bft)
22.06.2019 10:50 23,1 C 18,7 C 22,4 C 26,4 C 26,4 C 3,3 C 66 % 65 % 1021,7 hPa 0,0 l/m 6,0 km/h (2 Bft) O-NO 67 5 min 16,4 C 26,4 C 10,8 km/h (2 Bft)
22.06.2019 10:55 22,8 C 18,7 C 22,5 C 25,6 C 25,6 C 2,8 C 64 % 64 % 1021,7 hPa 0,0 l/m 8,4 km/h (2 Bft) NO 45 0 min 15,6 C 25,6 C 20,0 km/h (4 Bft)
22.06.2019 11:00 22,8 C 18,8 C 22,6 C 25,5 C 25,5 C 2,7 C 64 % 63 % 1021,7 hPa 0,0 l/m 8,9 km/h (2 Bft) NO 45 0 min 15,6 C 25,5 C 13,0 km/h (3 Bft)
22.06.2019 11:05 22,9 C 18,8 C 22,5 C 25,5 C 25,5 C 2,6 C 65 % 64 % 1021,7 hPa 0,0 l/m 7,1 km/h (2 Bft) NO 45 0 min 16,0 C 25,5 C 10,3 km/h (2 Bft)
22.06.2019 11:10 23,0 C 18,8 C 22,7 C 26,1 C 26,1 C 3,1 C 65 % 64 % 1021,7 hPa 0,0 l/m 7,1 km/h (2 Bft) O-NO 67 0 min 16,1 C 26,1 C 11,4 km/h (2 Bft)
22.06.2019 11:15 23,4 C 18,8 C 22,9 C 27,5 C 27,5 C 4,1 C 66 % 65 % 1021,7 hPa 0,0 l/m 5,6 km/h (1 Bft) NW 315 5 min 16,7 C 27,5 C 3,1 km/h (1 Bft)
22.06.2019 11:20 23,5 C 18,8 C 23,1 C 28,0 C 28,0 C 4,5 C 65 % 63 % 1021,7 hPa 0,0 l/m 5,5 km/h (1 Bft) O-NO 67 5 min 16,5 C 28,0 C 10,5 km/h (2 Bft)
22.06.2019 11:25 23,6 C 18,8 C 23,1 C 27,4 C 27,4 C 3,8 C 64 % 63 % 1021,8 hPa 0,0 l/m 6,1 km/h (2 Bft) O-SO 112 5 min 16,4 C 27,4 C 9,2 km/h (2 Bft)
22.06.2019 11:30 23,5 C 18,9 C 23,0 C 26,6 C 26,6 C 3,1 C 64 % 64 % 1021,8 hPa 0,0 l/m 7,1 km/h (2 Bft) O-NO 67 0 min 16,3 C 26,6 C 11,4 km/h (2 Bft)
22.06.2019 11:35 23,3 C 18,9 C 23,1 C 26,3 C 26,3 C 3,0 C 64 % 62 % 1021,8 hPa 0,0 l/m 8,2 km/h (2 Bft) NO 45 0 min 16,1 C 26,3 C 7,7 km/h (2 Bft)
22.06.2019 11:40 23,5 C 18,9 C 23,3 C 26,8 C 26,8 C 3,3 C 65 % 64 % 1021,8 hPa 0,0 l/m 8,0 km/h (2 Bft) O-NO 67 5 min 16,5 C 26,8 C 4,8 km/h (1 Bft)
22.06.2019 11:45 23,7 C 18,9 C 23,6 C 27,4 C 27,4 C 3,7 C 64 % 62 % 1021,8 hPa 0,0 l/m 7,7 km/h (2 Bft) N-NO 22 5 min 16,5 C 27,4 C 11,4 km/h (2 Bft)
22.06.2019 11:50 23,8 C 18,9 C 23,9 C 27,9 C 27,9 C 4,1 C 58 % 56 % 1021,8 hPa 0,0 l/m 9,8 km/h (2 Bft) NO 45 5 min 15,0 C 27,9 C 14,8 km/h (3 Bft)
22.06.2019 11:55 24,0 C 19,0 C 23,8 C 27,8 C 27,8 C 3,8 C 57 % 55 % 1021,8 hPa 0,0 l/m 11,9 km/h (2 Bft) N-NO 22 5 min 14,9 C 27,8 C 17,1 km/h (3 Bft)
22.06.2019 12:00 24,0 C 19,0 C 23,8 C 27,8 C 27,8 C 3,8 C 58 % 55 % 1021,8 hPa 0,0 l/m 11,1 km/h (2 Bft) O-NO 67 5 min 15,2 C 27,8 C 10,6 km/h (2 Bft)
22.06.2019 12:05 24,1 C 19,0 C 23,8 C 27,9 C 27,9 C 3,8 C 58 % 57 % 1021,5 hPa 0,0 l/m 10,6 km/h (2 Bft) O-NO 67 5 min 15,3 C 27,9 C 7,6 km/h (2 Bft)
22.06.2019 12:11 24,3 C 19,0 C 24,1 C 27,9 C 27,9 C 3,6 C 58 % 57 % 1021,5 hPa 0,0 l/m 9,2 km/h (2 Bft) N 0 6 min 15,5 C 27,9 C 7,2 km/h (2 Bft)
22.06.2019 12:26 25,1 C 19,0 C 24,7 C 28,9 C 28,9 C 3,8 C 55 % 54 % 1021,4 hPa 0,0 l/m 9,0 km/h (2 Bft) O-NO 67 15 min 15,4 C 28,9 C 12,6 km/h (3 Bft)
22.06.2019 12:35 24,8 C 19,0 C 24,6 C 28,0 C 28,0 C 3,2 C 55 % 52 % 1021,4 hPa 0,0 l/m 9,7 km/h (2 Bft) O-NO 67 0 min 15,1 C 28,0 C 12,2 km/h (2 Bft)
22.06.2019 12:40 25,1 C 19,0 C 24,7 C 28,3 C 28,3 C 3,2 C 55 % 54 % 1021,4 hPa 0,0 l/m 8,2 km/h (2 Bft) NO 45 0 min 15,4 C 28,3 C 12,4 km/h (3 Bft)
22.06.2019 12:45 25,4 C 19,1 C 24,9 C 29,0 C 29,0 C 3,6 C 54 % 52 % 1021,5 hPa 0,0 l/m 7,7 km/h (2 Bft) O-NO 67 5 min 15,4 C 29,0 C 8,9 km/h (2 Bft)
22.06.2019 12:50 25,5 C 19,1 C 24,9 C 28,3 C 28,3 C 2,8 C 53 % 51 % 1021,5 hPa 0,0 l/m 7,9 km/h (2 Bft) W-NW 292 0 min 15,2 C 28,3 C 10,3 km/h (2 Bft)
22.06.2019 12:55 25,3 C 19,1 C 24,9 C 28,4 C 28,4 C 3,1 C 53 % 52 % 1021,5 hPa 0,0 l/m 8,0 km/h (2 Bft) NO 45 0 min 15,0 C 28,4 C 7,6 km/h (2 Bft)
22.06.2019 13:00 25,5 C 19,1 C 25,0 C 28,7 C 28,7 C 3,2 C 52 % 50 % 1021,5 hPa 0,0 l/m 9,2 km/h (2 Bft) NO 45 0 min 14,9 C 28,7 C 7,9 km/h (2 Bft)
22.06.2019 13:05 25,1 C 19,1 C 24,6 C 27,4 C 27,4 C 2,3 C 53 % 52 % 1021,6 hPa 0,0 l/m 9,5 km/h (2 Bft) O-NO 67 0 min 14,8 C 27,4 C 7,6 km/h (2 Bft)
22.06.2019 13:10 25,1 C 19,1 C 24,7 C 27,7 C 27,7 C 2,6 C 54 % 52 % 1021,6 hPa 0,0 l/m 8,0 km/h (2 Bft) O-NO 67 0 min 15,1 C 27,7 C 9,3 km/h (2 Bft)
22.06.2019 13:15 25,0 C 19,1 C 24,6 C 27,3 C 27,3 C 2,3 C 54 % 52 % 1021,6 hPa 0,0 l/m 8,9 km/h (2 Bft) O-SO 112 0 min 15,0 C 27,3 C 12,2 km/h (2 Bft)
22.06.2019 13:20 24,7 C 19,1 C 24,3 C 26,7 C 26,7 C 2,0 C 54 % 53 % 1021,6 hPa 0,0 l/m 9,8 km/h (2 Bft) NO 45 0 min 14,8 C 26,7 C 6,9 km/h (2 Bft)
22.06.2019 13:25 24,7 C 19,2 C 24,3 C 26,3 C 26,3 C 1,6 C 55 % 54 % 1021,1 hPa 0,0 l/m 8,5 km/h (2 Bft) O-NO 67 0 min 15,0 C 26,3 C 10,3 km/h (2 Bft)
22.06.2019 13:30 24,7 C 19,2 C 24,4 C 26,5 C 26,5 C 1,8 C 55 % 53 % 1021,1 hPa 0,0 l/m 7,9 km/h (2 Bft) N-NO 22 0 min 15,0 C 26,5 C 10,6 km/h (2 Bft)
22.06.2019 13:35 24,7 C 19,2 C 24,3 C 26,3 C 26,3 C 1,6 C 55 % 54 % 1021,1 hPa 0,0 l/m 9,2 km/h (2 Bft) NO 45 0 min 15,0 C 26,3 C 8,9 km/h (2 Bft)
22.06.2019 13:40 24,5 C 19,2 C 24,3 C 26,0 C 26,0 C 1,5 C 55 % 54 % 1021,1 hPa 0,0 l/m 9,2 km/h (2 Bft) O-NO 67 0 min 14,9 C 26,0 C 13,5 km/h (3 Bft)
22.06.2019 13:45 24,4 C 19,3 C 24,3 C 25,9 C 25,9 C 1,5 C 56 % 56 % 1020,9 hPa 0,0 l/m 7,9 km/h (2 Bft) O-NO 67 0 min 15,0 C 25,9 C 10,6 km/h (2 Bft)
22.06.2019 13:50 24,4 C 19,3 C 24,3 C 26,0 C 26,0 C 1,6 C 56 % 53 % 1020,9 hPa 0,0 l/m 7,7 km/h (2 Bft) O-NO 67 0 min 15,0 C 26,0 C 8,5 km/h (2 Bft)
22.06.2019 13:55 24,7 C 19,2 C 24,6 C 26,7 C 26,7 C 2,0 C 56 % 55 % 1020,9 hPa 0,0 l/m 7,1 km/h (2 Bft) O 90 0 min 15,3 C 26,7 C 6,1 km/h (2 Bft)
22.06.2019 14:00 25,1 C 19,3 C 25,1 C 28,2 C 28,2 C 3,1 C 55 % 52 % 1020,9 hPa 0,0 l/m 7,2 km/h (2 Bft) NO 45 0 min 15,4 C 28,2 C 7,6 km/h (2 Bft)
22.06.2019 14:05 25,3 C 19,3 C 25,1 C 28,8 C 28,8 C 3,5 C 54 % 52 % 1020,9 hPa 0,0 l/m 8,5 km/h (2 Bft) O-NO 67 5 min 15,3 C 28,8 C 14,0 km/h (3 Bft)
22.06.2019 14:11 24,9 C 19,3 C 24,8 C 27,5 C 27,5 C 2,6 C 53 % 51 % 1020,9 hPa 0,0 l/m 10,5 km/h (2 Bft) N 0 0 min 14,6 C 27,5 C 10,3 km/h (2 Bft)
22.06.2019 14:26 24,9 C 19,3 C 24,9 C 27,2 C 27,2 C 2,3 C 53 % 52 % 1020,6 hPa 0,0 l/m 9,2 km/h (2 Bft) NO 45 0 min 14,6 C 27,2 C 10,6 km/h (2 Bft)
22.06.2019 14:35 25,0 C 19,4 C 25,0 C 27,0 C 27,0 C 2,0 C 54 % 52 % 1020,6 hPa 0,0 l/m 8,9 km/h (2 Bft) N-NO 22 0 min 15,0 C 27,0 C 12,7 km/h (3 Bft)
22.06.2019 14:40 25,1 C 19,4 C 24,9 C 27,1 C 27,1 C 2,0 C 53 % 51 % 1020,6 hPa 0,0 l/m 8,9 km/h (2 Bft) O-NO 67 0 min 14,8 C 27,1 C 10,8 km/h (2 Bft)
22.06.2019 14:45 24,8 C 19,4 C 24,8 C 26,6 C 26,6 C 1,8 C 53 % 51 % 1020,4 hPa 0,0 l/m 10,0 km/h (2 Bft) NO 45 0 min 14,6 C 26,6 C 9,7 km/h (2 Bft)
22.06.2019 14:50 24,8 C 19,4 C 25,0 C 26,9 C 26,9 C 2,1 C 53 % 52 % 1020,4 hPa 0,0 l/m 10,1 km/h (2 Bft) O-NO 67 0 min 14,6 C 26,9 C 12,7 km/h (3 Bft)
22.06.2019 14:55 25,1 C 19,4 C 25,2 C 27,7 C 27,7 C 2,6 C 54 % 52 % 1020,4 hPa 0,0 l/m 8,4 km/h (2 Bft) O-NO 67 0 min 15,1 C 27,7 C 5,8 km/h (2 Bft)
22.06.2019 15:00 25,3 C 19,4 C 25,4 C 28,2 C 28,2 C 2,9 C 54 % 51 % 1020,4 hPa 0,0 l/m 6,9 km/h (2 Bft) O-NO 67 0 min 15,3 C 28,2 C 12,2 km/h (2 Bft)
22.06.2019 15:05 25,3 C 19,4 C 25,3 C 28,3 C 28,3 C 3,0 C 52 % 49 % 1020,4 hPa 0,0 l/m 9,2 km/h (2 Bft) O-NO 67 0 min 14,7 C 28,3 C 13,7 km/h (3 Bft)
22.06.2019 15:10 25,3 C 19,5 C 25,5 C 28,8 C 28,8 C 3,5 C 53 % 50 % 1020,4 hPa 0,0 l/m 9,2 km/h (2 Bft) NO 45 5 min 15,0 C 28,8 C 5,3 km/h (1 Bft)
22.06.2019 15:15 25,6 C 19,5 C 25,5 C 28,9 C 28,9 C 3,3 C 52 % 50 % 1020,4 hPa 0,0 l/m 8,0 km/h (2 Bft) O-NO 67 5 min 15,0 C 28,9 C 13,7 km/h (3 Bft)
22.06.2019 15:20 25,5 C 19,5 C 25,4 C 28,3 C 28,3 C 2,8 C 51 % 50 % 1020,4 hPa 0,0 l/m 8,4 km/h (2 Bft) O-NO 67 0 min 14,6 C 28,3 C 9,7 km/h (2 Bft)
22.06.2019 15:25 25,3 C 19,5 C 25,0 C 27,4 C 27,4 C 2,1 C 51 % 51 % 1020,2 hPa 0,0 l/m 9,5 km/h (2 Bft) NO 45 0 min 14,4 C 27,4 C 10,3 km/h (2 Bft)
22.06.2019 15:30 25,1 C 19,5 C 24,8 C 26,7 C 26,7 C 1,6 C 52 % 51 % 1020,2 hPa 0,0 l/m 8,4 km/h (2 Bft) O-NO 67 0 min 14,5 C 26,7 C 9,0 km/h (2 Bft)
22.06.2019 15:35 25,0 C 19,5 C 24,7 C 26,3 C 26,3 C 1,3 C 52 % 50 % 1020,2 hPa 0,0 l/m 6,9 km/h (2 Bft) O-NO 67 0 min 14,4 C 26,3 C 6,9 km/h (2 Bft)
22.06.2019 15:40 25,1 C 19,5 C 24,7 C 26,3 C 26,3 C 1,2 C 52 % 51 % 1020,2 hPa 0,0 l/m 6,6 km/h (2 Bft) NO 45 0 min 14,5 C 26,3 C 6,3 km/h (2 Bft)
22.06.2019 15:45 25,0 C 19,5 C 24,7 C 26,3 C 26,3 C 1,3 C 51 % 50 % 1020,3 hPa 0,0 l/m 7,6 km/h (2 Bft) NO 45 0 min 14,1 C 26,3 C 10,8 km/h (2 Bft)
22.06.2019 15:50 24,9 C 19,5 C 24,7 C 26,2 C 26,2 C 1,3 C 51 % 50 % 1020,3 hPa 0,0 l/m 8,2 km/h (2 Bft) NO 45 0 min 14,1 C 26,2 C 7,6 km/h (2 Bft)
22.06.2019 15:55 25,0 C 19,5 C 24,7 C 26,3 C 26,3 C 1,3 C 51 % 48 % 1020,3 hPa 0,0 l/m 7,6 km/h (2 Bft) O-NO 67 0 min 14,1 C 26,3 C 7,9 km/h (2 Bft)
22.06.2019 16:00 25,0 C 19,6 C 24,7 C 26,3 C 26,3 C 1,3 C 50 % 48 % 1020,3 hPa 0,0 l/m 6,6 km/h (2 Bft) O 90 0 min 13,8 C 26,3 C 6,4 km/h (2 Bft)
22.06.2019 16:05 25,0 C 19,6 C 24,6 C 26,3 C 26,3 C 1,3 C 50 % 48 % 1020,1 hPa 0,0 l/m 6,9 km/h (2 Bft) O-NO 67 0 min 13,8 C 26,3 C 9,2 km/h (2 Bft)
22.06.2019 16:11 24,9 C 19,6 C 24,6 C 26,3 C 26,3 C 1,4 C 51 % 50 % 1020,1 hPa 0,0 l/m 6,9 km/h (2 Bft) N 0 0 min 14,1 C 26,3 C 6,3 km/h (2 Bft)
22.06.2019 16:26 24,9 C 19,6 C 24,3 C 25,8 C 25,8 C 0,9 C 52 % 50 % 1019,9 hPa 0,0 l/m 5,3 km/h (1 Bft) NO 45 0 min 14,4 C 25,8 C 6,0 km/h (2 Bft)
22.06.2019 16:35 24,7 C 19,6 C 24,3 C 25,6 C 25,6 C 0,9 C 52 % 50 % 1019,9 hPa 0,0 l/m 5,5 km/h (1 Bft) O-NO 67 0 min 14,2 C 25,6 C 8,9 km/h (2 Bft)
22.06.2019 16:40 24,6 C 19,6 C 24,2 C 25,5 C 25,5 C 0,9 C 51 % 48 % 1019,9 hPa 0,0 l/m 5,6 km/h (1 Bft) O-NO 67 0 min 13,8 C 25,5 C 6,8 km/h (2 Bft)
22.06.2019 16:45 24,7 C 19,6 C 24,1 C 25,3 C 25,3 C 0,6 C 51 % 50 % 1019,8 hPa 0,0 l/m 6,9 km/h (2 Bft) NO 45 0 min 13,9 C 25,3 C 6,1 km/h (2 Bft)
22.06.2019 16:50 24,5 C 19,6 C 24,0 C 25,2 C 25,2 C 0,7 C 51 % 49 % 1019,8 hPa 0,0 l/m 6,9 km/h (2 Bft) O-NO 67 0 min 13,7 C 25,2 C 9,7 km/h (2 Bft)
22.06.2019 16:55 24,5 C 19,6 C 24,0 C 25,1 C 25,1 C 0,6 C 51 % 49 % 1019,8 hPa 0,0 l/m 8,4 km/h (2 Bft) NO 45 0 min 13,7 C 25,1 C 8,2 km/h (2 Bft)
22.06.2019 17:00 24,5 C 19,6 C 24,0 C 25,1 C 25,1 C 0,6 C 51 % 50 % 1019,8 hPa 0,0 l/m 7,9 km/h (2 Bft) O-NO 67 0 min 13,7 C 25,1 C 5,3 km/h (1 Bft)
22.06.2019 17:05 24,4 C 19,6 C 23,9 C 24,9 C 24,9 C 0,5 C 52 % 52 % 1019,8 hPa 0,0 l/m 6,1 km/h (2 Bft) O-NO 67 0 min 13,9 C 24,9 C 6,0 km/h (2 Bft)
22.06.2019 17:10 24,4 C 19,7 C 23,8 C 24,8 C 24,8 C 0,4 C 53 % 52 % 1019,8 hPa 0,0 l/m 5,5 km/h (1 Bft) O-NO 67 0 min 14,2 C 24,8 C 3,9 km/h (1 Bft)
22.06.2019 17:15 24,3 C 19,7 C 23,7 C 24,6 C 24,6 C 0,3 C 53 % 52 % 1019,8 hPa 0,0 l/m 5,6 km/h (1 Bft) NO 45 0 min 14,1 C 24,6 C 6,4 km/h (2 Bft)
22.06.2019 17:20 24,3 C 19,7 C 23,6 C 24,6 C 24,6 C 0,3 C 53 % 53 % 1019,8 hPa 0,0 l/m 5,6 km/h (1 Bft) N-NO 22 0 min 14,1 C 24,6 C 5,6 km/h (1 Bft)
22.06.2019 17:25 24,2 C 19,7 C 23,7 C 24,7 C 24,7 C 0,5 C 53 % 53 % 1019,8 hPa 0,0 l/m 5,0 km/h (1 Bft) O-NO 67 0 min 14,0 C 24,7 C 4,7 km/h (1 Bft)
22.06.2019 17:30 24,2 C 19,7 C 23,8 C 24,9 C 24,9 C 0,7 C 53 % 52 % 1019,8 hPa 0,0 l/m 5,5 km/h (1 Bft) O-NO 67 0 min 14,0 C 24,9 C 6,6 km/h (2 Bft)
22.06.2019 17:35 24,4 C 19,7 C 23,9 C 25,3 C 25,3 C 0,9 C 53 % 52 % 1019,8 hPa 0,0 l/m 5,6 km/h (1 Bft) N-NO 22 0 min 14,2 C 25,3 C 9,8 km/h (2 Bft)
22.06.2019 17:40 24,4 C 19,7 C 24,0 C 25,6 C 25,6 C 1,2 C 53 % 53 % 1019,8 hPa 0,0 l/m 6,1 km/h (2 Bft) N-NO 22 0 min 14,2 C 25,6 C 12,6 km/h (3 Bft)
22.06.2019 17:45 24,5 C 19,7 C 24,1 C 25,9 C 25,9 C 1,4 C 53 % 53 % 1019,7 hPa 0,0 l/m 7,1 km/h (2 Bft) NO 45 0 min 14,3 C 25,9 C 8,7 km/h (2 Bft)
22.06.2019 17:50 24,5 C 19,7 C 24,1 C 25,9 C 25,9 C 1,4 C 53 % 53 % 1019,7 hPa 0,0 l/m 6,9 km/h (2 Bft) O-NO 67 0 min 14,3 C 25,9 C 6,8 km/h (2 Bft)
22.06.2019 17:55 24,5 C 19,7 C 24,1 C 25,8 C 25,8 C 1,3 C 54 % 54 % 1019,7 hPa 0,0 l/m 6,6 km/h (2 Bft) N-NO 22 0 min 14,6 C 25,8 C 5,1 km/h (1 Bft)
22.06.2019 18:00 24,5 C 19,7 C 24,1 C 25,8 C 25,8 C 1,3 C 54 % 54 % 1019,7 hPa 0,0 l/m 6,6 km/h (2 Bft) NO 45 0 min 14,6 C 25,8 C 8,5 km/h (2 Bft)
22.06.2019 18:05 24,5 C 19,7 C 24,1 C 25,8 C 25,8 C 1,3 C 54 % 55 % 1019,8 hPa 0,0 l/m 5,0 km/h (1 Bft) O-NO 67 0 min 14,6 C 25,8 C 5,1 km/h (1 Bft)
22.06.2019 18:11 24,4 C 19,7 C 24,1 C 25,7 C 25,7 C 1,3 C 55 % 55 % 1019,8 hPa 0,0 l/m 4,7 km/h (1 Bft) N 0 0 min 14,8 C 25,7 C 5,0 km/h (1 Bft)
22.06.2019 18:26 24,4 C 19,8 C 23,9 C 25,6 C 25,6 C 1,2 C 56 % 56 % 1019,6 hPa 0,0 l/m 4,0 km/h (1 Bft) N-NO 22 0 min 15,0 C 25,6 C 4,0 km/h (1 Bft)
22.06.2019 18:35 24,4 C 19,8 C 24,0 C 25,6 C 25,6 C 1,2 C 57 % 57 % 1019,6 hPa 0,0 l/m 3,5 km/h (1 Bft) O-NO 67 0 min 15,3 C 25,6 C 2,6 km/h (1 Bft)
22.06.2019 18:40 24,5 C 19,8 C 24,1 C 25,8 C 25,8 C 1,3 C 57 % 57 % 1019,6 hPa 0,0 l/m 3,4 km/h (1 Bft) NO 45 0 min 15,4 C 25,8 C 6,4 km/h (2 Bft)
22.06.2019 18:45 24,4 C 19,8 C 24,2 C 26,5 C 26,5 C 2,1 C 57 % 57 % 1019,3 hPa 0,0 l/m 4,2 km/h (1 Bft) NO 45 0 min 15,3 C 26,5 C 5,5 km/h (1 Bft)
22.06.2019 18:50 24,4 C 19,8 C 24,1 C 26,7 C 26,7 C 2,3 C 57 % 57 % 1019,3 hPa 0,0 l/m 4,5 km/h (1 Bft) O-NO 67 0 min 15,3 C 26,7 C 3,4 km/h (1 Bft)
22.06.2019 18:55 24,4 C 19,8 C 24,0 C 26,5 C 26,5 C 2,1 C 57 % 57 % 1019,3 hPa 0,0 l/m 3,7 km/h (1 Bft) N-NO 22 0 min 15,3 C 26,5 C 3,4 km/h (1 Bft)
22.06.2019 19:00 24,4 C 19,8 C 23,9 C 26,1 C 26,1 C 1,7 C 57 % 57 % 1019,3 hPa 0,0 l/m 2,9 km/h (1 Bft) NO 45 0 min 15,3 C 26,1 C 5,6 km/h (1 Bft)
22.06.2019 19:05 24,3 C 19,8 C 23,8 C 25,4 C 25,4 C 1,1 C 57 % 57 % 1019,4 hPa 0,0 l/m 3,2 km/h (1 Bft) NO 45 0 min 15,2 C 25,4 C 3,7 km/h (1 Bft)
22.06.2019 19:10 24,3 C 19,8 C 23,7 C 25,1 C 25,1 C 0,8 C 58 % 57 % 1019,4 hPa 0,0 l/m 3,9 km/h (1 Bft) NO 45 0 min 15,5 C 25,1 C 4,3 km/h (1 Bft)
22.06.2019 19:15 24,0 C 19,8 C 23,5 C 24,7 C 24,7 C 0,7 C 57 % 58 % 1019,4 hPa 0,0 l/m 3,7 km/h (1 Bft) O-NO 67 0 min 14,9 C 24,7 C 4,5 km/h (1 Bft)
22.06.2019 19:20 24,0 C 19,8 C 23,4 C 24,4 C 24,4 C 0,4 C 56 % 57 % 1019,4 hPa 0,0 l/m 4,7 km/h (1 Bft) O-NO 67 0 min 14,7 C 24,4 C 5,6 km/h (1 Bft)
22.06.2019 19:25 23,8 C 19,8 C 23,2 C 24,1 C 24,1 C 0,3 C 56 % 56 % 1019,4 hPa 0,0 l/m 5,5 km/h (1 Bft) NO 45 0 min 14,5 C 24,1 C 8,2 km/h (2 Bft)
22.06.2019 19:30 23,8 C 19,9 C 23,2 C 23,9 C 23,9 C 0,1 C 55 % 55 % 1019,4 hPa 0,0 l/m 5,8 km/h (2 Bft) NO 45 0 min 14,2 C 23,9 C 6,8 km/h (2 Bft)
22.06.2019 19:35 23,6 C 19,9 C 23,0 C 23,7 C 23,7 C 0,1 C 55 % 55 % 1019,4 hPa 0,0 l/m 6,1 km/h (2 Bft) O-NO 67 0 min 14,0 C 23,7 C 6,1 km/h (2 Bft)
22.06.2019 19:40 23,7 C 19,9 C 23,0 C 23,7 C 23,6 C 0,0 C 55 % 55 % 1019,4 hPa 0,0 l/m 5,6 km/h (1 Bft) NO 45 0 min 14,1 C 23,6 C 5,5 km/h (1 Bft)
22.06.2019 19:45 23,4 C 19,9 C 22,8 C 23,4 C 23,4 C 0,0 C 55 % 56 % 1019,5 hPa 0,0 l/m 5,1 km/h (1 Bft) O-NO 67 0 min 13,8 C 23,4 C 4,8 km/h (1 Bft)
22.06.2019 19:50 23,5 C 19,9 C 22,7 C 23,5 C 23,4 C 0,0 C 55 % 56 % 1019,5 hPa 0,0 l/m 4,7 km/h (1 Bft) NO 45 0 min 13,9 C 23,4 C 3,9 km/h (1 Bft)
22.06.2019 19:55 23,3 C 19,9 C 22,7 C 23,3 C 23,2 C 0,0 C 56 % 55 % 1019,5 hPa 0,0 l/m 3,9 km/h (1 Bft) O-NO 67 0 min 14,0 C 23,2 C 4,8 km/h (1 Bft)
22.06.2019 20:00 23,2 C 19,9 C 22,6 C 23,2 C 23,2 C 0,0 C 56 % 56 % 1019,5 hPa 0,0 l/m 3,7 km/h (1 Bft) NO 45 0 min 13,9 C 23,2 C 3,2 km/h (1 Bft)
22.06.2019 20:05 23,2 C 19,9 C 22,5 C 23,2 C 23,2 C 0,0 C 56 % 56 % 1019,2 hPa 0,0 l/m 4,0 km/h (1 Bft) O-NO 67 0 min 13,9 C 23,2 C 4,5 km/h (1 Bft)
22.06.2019 20:11 23,3 C 19,9 C 22,5 C 23,2 C 23,1 C 0,0 C 56 % 56 % 1019,2 hPa 0,0 l/m 4,2 km/h (1 Bft) N 0 0 min 14,0 C 23,1 C 5,1 km/h (1 Bft)
22.06.2019 20:26 23,0 C 19,9 C 22,3 C 22,9 C 22,8 C 0,0 C 57 % 57 % 1019,5 hPa 0,0 l/m 3,2 km/h (1 Bft) O-NO 67 0 min 14,0 C 22,8 C 3,4 km/h (1 Bft)
22.06.2019 20:35 22,8 C 19,9 C 22,0 C 22,7 C 22,6 C 0,0 C 58 % 59 % 1019,5 hPa 0,0 l/m 1,8 km/h (1 Bft) O-NO 67 0 min 14,1 C 22,6 C 2,4 km/h (1 Bft)
22.06.2019 20:40 22,7 C 19,9 C 21,9 C 22,7 C 22,6 C 0,0 C 58 % 60 % 1019,5 hPa 0,0 l/m 1,8 km/h (1 Bft) O-NO 67 0 min 14,0 C 22,6 C 2,6 km/h (1 Bft)
22.06.2019 20:45 22,6 C 19,9 C 21,9 C 22,6 C 22,6 C 0,0 C 59 % 60 % 1019,4 hPa 0,0 l/m 1,3 km/h (1 Bft) NO 45 0 min 14,2 C 22,6 C 0,0 km/h (0 Bft)
22.06.2019 20:50 22,5 C 19,9 C 21,8 C 22,5 C 22,5 C 0,0 C 60 % 61 % 1019,4 hPa 0,0 l/m 1,1 km/h (1 Bft) O-NO 67 0 min 14,3 C 22,5 C 1,9 km/h (1 Bft)
22.06.2019 20:55 22,4 C 19,9 C 21,6 C 22,3 C 22,2 C 0,0 C 60 % 62 % 1019,4 hPa 0,0 l/m 1,0 km/h (0 Bft) O-NO 67 0 min 14,2 C 22,2 C 2,3 km/h (1 Bft)
22.06.2019 21:00 22,4 C 19,9 C 21,5 C 22,3 C 22,1 C 0,0 C 60 % 62 % 1019,4 hPa 0,0 l/m 1,0 km/h (0 Bft) NO 45 0 min 14,2 C 22,1 C 1,8 km/h (1 Bft)
22.06.2019 21:05 22,3 C 19,9 C 21,5 C 22,2 C 22,0 C 0,0 C 60 % 61 % 1019,6 hPa 0,0 l/m 1,6 km/h (1 Bft) NO 45 0 min 14,2 C 22,0 C 2,7 km/h (1 Bft)
22.06.2019 21:10 22,3 C 19,9 C 21,5 C 22,2 C 21,9 C 0,0 C 59 % 61 % 1019,6 hPa 0,0 l/m 2,1 km/h (1 Bft) O-NO 67 0 min 13,9 C 21,9 C 3,1 km/h (1 Bft)
22.06.2019 21:15 22,2 C 19,9 C 21,6 C 22,1 C 21,9 C 0,0 C 59 % 59 % 1019,6 hPa 0,0 l/m 2,9 km/h (1 Bft) O-NO 67 0 min 13,8 C 21,9 C 4,3 km/h (1 Bft)
22.06.2019 21:20 22,3 C 19,9 C 21,5 C 22,2 C 21,9 C 0,0 C 59 % 58 % 1019,6 hPa 0,0 l/m 3,4 km/h (1 Bft) NO 45 0 min 13,9 C 21,9 C 3,1 km/h (1 Bft)
22.06.2019 21:25 22,3 C 19,9 C 21,5 C 22,1 C 21,8 C 0,0 C 58 % 58 % 1019,6 hPa 0,0 l/m 3,5 km/h (1 Bft) O-NO 67 0 min 13,6 C 21,8 C 3,4 km/h (1 Bft)
22.06.2019 21:30 22,3 C 19,9 C 21,5 C 22,1 C 21,7 C 0,0 C 58 % 58 % 1019,6 hPa 0,0 l/m 3,5 km/h (1 Bft) O-NO 67 0 min 13,6 C 21,7 C 4,3 km/h (1 Bft)
22.06.2019 21:35 22,1 C 19,9 C 21,4 C 21,9 C 21,5 C 0,0 C 58 % 58 % 1019,6 hPa 0,0 l/m 3,4 km/h (1 Bft) O 90 0 min 13,4 C 21,5 C 3,7 km/h (1 Bft)
22.06.2019 21:40 22,1 C 19,9 C 21,3 C 21,8 C 21,3 C 0,0 C 58 % 58 % 1019,6 hPa 0,0 l/m 3,4 km/h (1 Bft) NO 45 0 min 13,4 C 21,3 C 4,2 km/h (1 Bft)
22.06.2019 21:45 21,9 C 19,9 C 21,1 C 21,6 C 21,1 C 0,0 C 58 % 58 % 1019,8 hPa 0,0 l/m 2,9 km/h (1 Bft) O-NO 67 0 min 13,3 C 21,1 C 2,9 km/h (1 Bft)
22.06.2019 21:50 21,9 C 19,9 C 21,1 C 21,6 C 20,9 C 0,0 C 58 % 59 % 1019,8 hPa 0,0 l/m 2,6 km/h (1 Bft) NO 45 0 min 13,3 C 20,9 C 1,8 km/h (1 Bft)
22.06.2019 21:55 21,5 C 19,9 C 20,7 C 21,2 C 20,5 C 0,0 C 59 % 59 % 1019,8 hPa 0,0 l/m 1,8 km/h (1 Bft) O-NO 67 0 min 13,1 C 20,5 C 0,0 km/h (0 Bft)
22.06.2019 22:00 21,4 C 19,9 C 20,5 C 21,0 C 20,2 C 0,0 C 60 % 60 % 1019,8 hPa 0,0 l/m 1,1 km/h (1 Bft) N-NO 22 0 min 13,3 C 20,2 C 0,0 km/h (0 Bft)
22.06.2019 22:05 21,0 C 19,9 C 20,1 C 20,6 C 19,8 C 0,0 C 60 % 62 % 1019,7 hPa 0,0 l/m 0,3 km/h (0 Bft) O-NO 67 0 min 12,9 C 19,8 C 0,0 km/h (0 Bft)
22.06.2019 22:11 20,9 C 19,9 C 19,9 C 20,5 C 19,6 C 0,0 C 61 % 63 % 1019,7 hPa 0,0 l/m 0,3 km/h (0 Bft) N 0 0 min 13,1 C 19,6 C 0,0 km/h (0 Bft)
22.06.2019 22:26 20,3 C 20,0 C 19,3 C 19,8 C 18,8 C 0,0 C 62 % 65 % 1019,9 hPa 0,0 l/m 0,0 km/h (0 Bft) NO 45 0 min 12,8 C 18,8 C 0,0 km/h (0 Bft)
22.06.2019 22:35 20,0 C 20,0 C 18,8 C 19,5 C 18,6 C 0,0 C 64 % 67 % 1019,9 hPa 0,0 l/m 0,0 km/h (0 Bft) NO 45 0 min 13,0 C 18,6 C 0,0 km/h (0 Bft)
22.06.2019 22:40 19,8 C 19,9 C 18,7 C 19,3 C 18,4 C 0,0 C 64 % 67 % 1019,9 hPa 0,0 l/m 0,0 km/h (0 Bft) NO 45 0 min 12,8 C 18,4 C 0,0 km/h (0 Bft)
22.06.2019 22:45 19,5 C 19,9 C 18,5 C 19,0 C 18,1 C 0,0 C 65 % 68 % 1020,1 hPa 0,0 l/m 0,2 km/h (0 Bft) O-NO 67 0 min 12,7 C 18,1 C 1,8 km/h (1 Bft)
22.06.2019 22:50 19,3 C 19,9 C 18,3 C 18,8 C 17,9 C 0,0 C 66 % 69 % 1020,1 hPa 0,0 l/m 0,2 km/h (0 Bft) O-NO 67 0 min 12,8 C 17,9 C 0,0 km/h (0 Bft)
22.06.2019 22:55 18,9 C 19,9 C 18,1 C 18,5 C 17,6 C 0,0 C 67 % 70 % 1020,1 hPa 0,0 l/m 0,3 km/h (0 Bft) O-NO 67 0 min 12,6 C 17,6 C 1,9 km/h (1 Bft)
22.06.2019 23:00 18,8 C 19,9 C 17,9 C 18,3 C 17,4 C 0,0 C 67 % 70 % 1020,1 hPa 0,0 l/m 0,3 km/h (0 Bft) O-NO 67 0 min 12,5 C 17,4 C 2,3 km/h (1 Bft)
22.06.2019 23:05 18,5 C 19,9 C 17,8 C 18,1 C 17,2 C 0,0 C 68 % 70 % 1020,2 hPa 0,0 l/m 0,6 km/h (0 Bft) O-NO 67 0 min 12,5 C 17,2 C 0,0 km/h (0 Bft)
22.06.2019 23:10 18,4 C 19,9 C 17,7 C 18,0 C 17,1 C 0,0 C 68 % 70 % 1020,2 hPa 0,0 l/m 0,5 km/h (0 Bft) O-NO 67 0 min 12,4 C 17,1 C 0,0 km/h (0 Bft)
22.06.2019 23:15 18,3 C 19,9 C 17,5 C 17,7 C 16,6 C 0,0 C 69 % 72 % 1020,2 hPa 0,0 l/m 0,0 km/h (0 Bft) O-NO 67 0 min 12,5 C 16,6 C 0,0 km/h (0 Bft)
22.06.2019 23:20 18,1 C 19,9 C 17,3 C 17,5 C 16,3 C 0,0 C 70 % 72 % 1020,2 hPa 0,0 l/m 0,0 km/h (0 Bft) O-NO 67 0 min 12,5 C 16,3 C 0,0 km/h (0 Bft)
22.06.2019 23:25 17,8 C 19,9 C 17,2 C 17,2 C 16,0 C 0,0 C 70 % 73 % 1020,4 hPa 0,0 l/m 0,0 km/h (0 Bft) NO 45 0 min 12,3 C 16,0 C 0,0 km/h (0 Bft)
22.06.2019 23:30 17,7 C 19,9 C 17,1 C 17,1 C 16,0 C 0,0 C 71 % 73 % 1020,4 hPa 0,0 l/m 0,0 km/h (0 Bft) NO 45 0 min 12,4 C 16,0 C 0,0 km/h (0 Bft)
22.06.2019 23:35 17,5 C 19,8 C 16,9 C 16,9 C 15,8 C 0,0 C 71 % 74 % 1020,4 hPa 0,0 l/m 0,0 km/h (0 Bft) NO 45 0 min 12,2 C 15,8 C 0,0 km/h (0 Bft)
22.06.2019 23:40 17,3 C 19,9 C 16,8 C 16,8 C 15,7 C 0,0 C 72 % 74 % 1020,4 hPa 0,0 l/m 0,0 km/h (0 Bft) NO 45 0 min 12,2 C 15,7 C 0,0 km/h (0 Bft)
22.06.2019 23:45 17,2 C 19,9 C 16,7 C 16,7 C 15,6 C 0,0 C 72 % 75 % 1020,5 hPa 0,0 l/m 0,0 km/h (0 Bft) NO 45 0 min 12,1 C 15,6 C 0,0 km/h (0 Bft)
22.06.2019 23:50 17,1 C 19,9 C 16,7 C 16,6 C 15,6 C 0,0 C 73 % 75 % 1020,5 hPa 0,0 l/m 0,0 km/h (0 Bft) O-NO 67 0 min 12,2 C 15,6 C 0,0 km/h (0 Bft)
22.06.2019 23:55 16,9 C 19,9 C 16,5 C 16,5 C 15,6 C 0,0 C 74 % 76 % 1020,5 hPa 0,0 l/m 0,0 km/h (0 Bft) NO 45 0 min 12,2 C 15,6 C 0,0 km/h (0 Bft)
_ Min-Zeit 05:35 07:55 05:15 05:20 05:25 00:00 16:00 15:55 20:05 - 00:00 - - - 05:35 05:25 00:00
Minimum _ 12,1 C 18,7 C 12,5 C 11,9 C 11,3 C 0,0 C 50 % 48 % 1019,2 hPa - 0,0 km/h (0 Bft) - - - 10,0 C 11,3 C 0,0 km/h (0 Bft)
_ Max-Zeit 15:15 00:05 15:10 09:40 09:40 07:35 06:45 04:26 06:45 00:00 11:55 - - 08:26 11:15 09:40 10:55
Maximum _ 25,6 C 20,1 C 25,5 C 29,4 C 29,4 C 10,2 C 88 % 89 % 1022,5 hPa 0,0 l/m 11,9 km/h
N-NO (2 Bft)
- - 15 min 16,7 C 29,4 C 20,0 km/h
NO (4 Bft)
Durchschnitt _ 19,8 C 19,5 C 19,5 C 21,3 C 21,0 C 1,7 C 69 % 69 % 1021,0 hPa #0,0 l/m 3,2 km/h (1 Bft) O-NO - #5:16 h 13,5 C 21,0 C 3,9 km/h (1 Bft)
2019 www.wetterstation-wechselburg.de